| time (UTC) | temp F | wind direction | speed knots | gust knots | rain 1hr in | rain 24hr in | rain mn in | humidity % | barometer mb |
| 20260904090052 | 53 | 217 | 0.0 | 0.0 | 0.00 | 0.13 | 0.00 | 91 | 1009.4 |
| 20260904084552 | 53 | 217 | 0.0 | 0.0 | 0.00 | 0.13 | 0.00 | 92 | 1009.3 |
| 20260904083050 | 53 | 217 | 0.0 | 0.0 | 0.00 | 0.13 | 0.00 | 91 | 1009.3 |
| 20260904081610 | 53 | 309 | 0.0 | 0.0 | 0.00 | 0.13 | 0.00 | 91 | 1009.3 |
| 20260904080050 | 54 | 309 | 0.0 | 0.9 | 0.00 | 0.13 | 0.00 | 90 | 1009.4 |
| 20260904074559 | 54 | 299 | 0.0 | 0.9 | 0.00 | 0.13 | 0.00 | 90 | 1009.4 |
| 20260904073046 | 53 | 284 | 0.0 | 0.0 | 0.00 | 0.13 | 0.00 | 90 | 1009.3 |
| 20260904071539 | 53 | 284 | 0.0 | 0.0 | 0.00 | 0.13 | 0.00 | 90 | 1009.3 |
| 20260904070034 | 53 | 284 | 0.0 | 0.0 | 0.00 | 0.13 | 0.00 | 91 | 1009.3 |
| 20260904064535 | 53 | 284 | 0.0 | 0.0 | 0.00 | 0.13 | 0.00 | 91 | 1009.2 |
| 20260904063035 | 53 | 284 | 0.0 | 0.0 | 0.00 | 0.13 | 0.00 | 91 | 1009.3 |
| 20260904061532 | 53 | 284 | 0.0 | 0.0 | 0.00 | 0.13 | 0.00 | 91 | 1009.3 |
| 20260904060031 | 53 | 284 | 0.0 | 0.0 | 0.00 | 0.13 | 0.00 | 90 | 1009.1 |
| 20260904054513 | 53 | 284 | 0.0 | 0.9 | 0.00 | 0.13 | 0.00 | 90 | 1009.3 |
| 20260904053012 | 54 | 285 | 0.0 | 0.9 | 0.00 | 0.13 | 0.00 | 90 | 1009.3 |
| 20260904051555 | 54 | 285 | 0.0 | 0.9 | 0.00 | 0.13 | 0.00 | 90 | 1009.4 |
| 20260904050052 | 54 | 200 | 0.0 | 0.0 | 0.00 | 0.13 | 0.00 | 91 | 1009.5 |
| 20260904044534 | 54 | 208 | 0.0 | 0.9 | 0.00 | 0.13 | 0.00 | 91 | 1009.4 |
| 20260904043040 | 55 | 288 | 0.0 | 0.0 | 0.00 | 0.13 | 0.00 | 91 | 1009.4 |
| 20260904041515 | 55 | 289 | 0.0 | 1.7 | 0.00 | 0.13 | 0.00 | 92 | 1009.5 |
| 20260904040015 | 55 | 296 | 0.0 | 0.9 | 0.00 | 0.13 | 0.00 | 91 | 1009.5 |
| 20260904034502 | 55 | 297 | 0.0 | 2.6 | 0.00 | 0.13 | 0.00 | 90 | 1009.4 |
| 20260904033003 | 55 | 301 | 0.0 | 0.9 | 0.00 | 0.13 | 0.00 | 90 | 1009.1 |
| 20260904031501 | 55 | 172 | 0.0 | 0.0 | 0.00 | 0.13 | 0.00 | 89 | 1008.9 |
| 20260904024604 | 55 | 275 | 0.0 | 1.7 | 0.00 | 0.13 | 0.00 | 89 | 1008.8 |
| 20260904023059 | 55 | 281 | 0.0 | 0.9 | 0.00 | 0.13 | 0.00 | 88 | 1008.7 |
| 20260904021601 | 56 | 284 | 0.0 | 1.7 | 0.00 | 0.13 | 0.00 | 87 | 1008.7 |
| 20260904020059 | 56 | 205 | 0.0 | 0.9 | 0.00 | 0.13 | 0.00 | 86 | 1008.7 |
| 20260904014558 | 57 | 296 | 0.0 | 1.7 | 0.00 | 0.13 | 0.00 | 85 | 1008.6 |
| 20260904013040 | 57 | 165 | 0.0 | 0.9 | 0.00 | 0.13 | 0.00 | 86 | 1008.7 |
| 20260904011532 | 58 | 181 | 0.0 | 0.0 | 0.00 | 0.13 | 0.00 | 84 | 1008.6 |
| 20260904010027 | 58 | 166 | 0.0 | 0.9 | 0.00 | 0.13 | 0.00 | 82 | 1008.7 |
| 20260904004525 | 59 | 262 | 0.0 | 0.9 | 0.00 | 0.13 | 0.00 | 82 | 1008.7 |
| 20260904003021 | 58 | 202 | 0.0 | 1.7 | 0.00 | 0.13 | 0.00 | 84 | 1008.6 |
| 20260904001517 | 56 | 167 | 0.0 | 0.9 | 0.00 | 0.14 | 0.00 | 86 | 1008.7 |
| 20260904000050 | 56 | 266 | 0.0 | 0.9 | 0.00 | 0.14 | 0.00 | 85 | 1008.9 |
| 20260903234516 | 56 | 181 | 0.0 | 0.9 | 0.00 | 0.14 | 0.00 | 87 | 1008.8 |
| 20260903233011 | 55 | 170 | 0.0 | 0.0 | 0.00 | 0.14 | 0.00 | 89 | 1008.8 |
| 20260903231608 | 54 | 192 | 0.0 | 0.0 | 0.00 | 0.16 | 0.00 | 91 | 1008.8 |
| 20260903230103 | 54 | 173 | 0.0 | 0.0 | 0.00 | 0.16 | 0.00 | 91 | 1009.0 |
| 20260903224556 | 54 | 149 | 0.0 | 3.5 | 0.00 | 0.16 | 0.00 | 90 | 1009.3 |
| 20260903223051 | 54 | 147 | 0.0 | 1.7 | 0.00 | 0.16 | 0.00 | 91 | 1009.2 |
| 20260903221552 | 54 | 158 | 0.0 | 0.9 | 0.00 | 0.17 | 0.00 | 92 | 1009.2 |
| 20260903220106 | 54 | 158 | 0.0 | 0.9 | 0.00 | 0.17 | 0.00 | 92 | 1009.2 |
| 20260903214553 | 54 | 172 | 0.0 | 1.7 | 0.01 | 0.17 | 0.00 | 92 | 1009.2 |
| 20260903213049 | 54 | 151 | 0.0 | 2.6 | 0.02 | 0.17 | 0.00 | 93 | 1009.4 |
| 20260903211538 | 54 | 143 | 0.0 | 0.9 | 0.06 | 0.17 | 0.17 | 95 | 1009.4 |
| 20260903210031 | 53 | 152 | 0.0 | 1.7 | 0.06 | 0.17 | 0.17 | 93 | 1009.3 |
| 20260903204531 | 54 | 127 | 0.0 | 0.9 | 0.05 | 0.16 | 0.16 | 92 | 1009.2 |
| 20260903203039 | 55 | 148 | 0.0 | 1.7 | 0.04 | 0.15 | 0.15 | 89 | 1009.3 |
| 20260903201529 | 58 | 103 | 0.0 | 3.5 | 0.00 | 0.14 | 0.11 | 85 | 1009.0 |
| 20260903200031 | 59 | 148 | 0.0 | 2.6 | 0.00 | 0.14 | 0.11 | 81 | 1009.0 |
| 20260903194542 | 59 | 185 | 0.0 | 4.3 | 0.00 | 0.14 | 0.11 | 81 | 1008.8 |
| 20260903193024 | 59 | 153 | 0.0 | 4.3 | 0.00 | 0.14 | 0.11 | 84 | 1008.8 |
| 20260903191524 | 58 | 169 | 0.0 | 3.5 | 0.00 | 0.20 | 0.11 | 85 | 1008.9 |
| 20260903190011 | 58 | 212 | 0.0 | 4.3 | 0.00 | 0.20 | 0.11 | 87 | 1009.0 |
| 20260903184516 | 57 | 181 | 0.0 | 2.6 | 0.00 | 0.20 | 0.11 | 89 | 1009.2 |
| 20260903183009 | 57 | 152 | 0.0 | 1.7 | 0.00 | 0.20 | 0.11 | 90 | 1009.2 |
| 20260903181521 | 57 | 221 | 0.0 | 2.6 | 0.00 | 0.24 | 0.11 | 91 | 1009.0 |
| 20260903180007 | 56 | 174 | 0.0 | 1.7 | 0.00 | 0.24 | 0.11 | 93 | 1009.0 |
| 20260903174507 | 56 | 176 | 0.0 | 2.6 | 0.00 | 0.24 | 0.11 | 94 | 1009.0 |
| 20260903173006 | 56 | 255 | 0.0 | 1.7 | 0.00 | 0.24 | 0.11 | 94 | 1008.9 |
| 20260903171552 | 56 | 310 | 0.0 | 3.5 | 0.00 | 0.25 | 0.11 | 96 | 1008.9 |
| 20260903170056 | 55 | 169 | 0.0 | 0.9 | 0.05 | 0.25 | 0.11 | 96 | 1009.1 |
| 20260903164538 | 54 | 141 | 0.0 | 0.9 | 0.07 | 0.25 | 0.11 | 97 | 1009.2 |
| 20260903163045 | 53 | 155 | 0.0 | 0.0 | 0.07 | 0.25 | 0.11 | 97 | 1009.2 |
| 20260903161536 | 52 | 153 | 0.0 | 0.0 | 0.07 | 0.25 | 0.11 | 96 | 1009.3 |
| 20260903160034 | 52 | 150 | 0.0 | 0.9 | 0.02 | 0.20 | 0.06 | 97 | 1009.3 |
| 20260903154532 | 52 | 140 | 0.0 | 1.7 | 0.00 | 0.18 | 0.04 | 97 | 1009.3 |
| 20260903153029 | 0 | 0.0 | 0.0 | 0.00 | 0.18 | 0.04 | 1009.1 | ||
| 20260903151526 | 0 | 0.0 | 0.0 | 0.00 | 0.18 | 0.04 | 1009.1 | ||
| 20260903150024 | 0 | 0.0 | 0.0 | 0.00 | 0.18 | 0.04 | 1008.9 | ||
| 20260903144602 | 0 | 0.0 | 0.0 | 0.00 | 0.18 | 0.04 | 1008.8 | ||
| 20260903143101 | 0 | 0.0 | 0.0 | 0.00 | 0.18 | 0.04 | 1008.6 | ||
| 20260903141547 | 0 | 0.0 | 0.0 | 0.00 | 0.18 | 0.04 | 1008.5 | ||
| 20260903140047 | 0 | 0.0 | 0.0 | 0.00 | 0.18 | 0.04 | 1008.4 | ||
| 20260903134541 | 0 | 0.0 | 0.0 | 0.00 | 0.18 | 0.04 | 1008.5 | ||
| 20260903133038 | 0 | 0.0 | 0.0 | 0.00 | 0.18 | 0.04 | 1008.3 | ||
| 20260903131534 | 0 | 0.0 | 0.0 | 0.00 | 0.18 | 0.04 | 1008.3 | ||
| 20260903130029 | 0 | 0.0 | 0.0 | 0.00 | 0.18 | 0.04 | 1008.3 | ||
| 20260903124526 | 0 | 0.0 | 0.0 | 0.00 | 0.18 | 0.04 | 1008.4 | ||
| 20260903123028 | 0 | 0.0 | 0.0 | 0.00 | 0.18 | 0.04 | 1008.5 | ||
| 20260903121519 | 53 | 173 | 0.0 | 1.7 | 0.00 | 0.18 | 0.04 | 95 | 1008.4 |
| 20260903120008 | 53 | 160 | 0.0 | 0.9 | 0.00 | 0.18 | 0.04 | 95 | 1008.5 |
| 20260903114506 | 53 | 171 | 0.0 | 0.0 | 0.00 | 0.18 | 0.04 | 95 | 1008.4 |
| 20260903113005 | 53 | 151 | 0.0 | 0.9 | 0.00 | 0.18 | 0.04 | 95 | 1008.5 |
| 20260903111503 | 53 | 168 | 0.0 | 0.9 | 0.00 | 0.18 | 0.04 | 95 | 1008.5 |
| 20260903110003 | 53 | 168 | 0.0 | 0.9 | 0.00 | 0.18 | 0.04 | 95 | 1008.5 |
| 20260903104503 | 53 | 192 | 0.0 | 2.6 | 0.00 | 0.18 | 0.04 | 96 | 1008.5 |
| 20260903103002 | 53 | 146 | 0.0 | 0.9 | 0.00 | 0.18 | 0.04 | 96 | 1008.6 |
| 20260903101501 | 53 | 162 | 0.0 | 3.5 | 0.00 | 0.18 | 0.04 | 96 | 1008.5 |
| 20260903100045 | 53 | 166 | 0.0 | 1.7 | 0.00 | 0.18 | 0.04 | 96 | 1008.4 |
| 20260903094549 | 53 | 155 | 0.0 | 0.9 | 0.00 | 0.18 | 0.04 | 96 | 1008.4 |
| 20260903093049 | 53 | 122 | 0.0 | 1.7 | 0.00 | 0.18 | 0.04 | 96 | 1008.4 |
| 20260903091524 | 53 | 203 | 0.0 | 1.7 | 0.00 | 0.18 | 0.04 | 96 | 1008.4 |